Weather History for Pella, IA

Change the Weather History Date:

Friday, October 26, 2012

  Actual Average (KOXV) Record (KOXV)
Temperature  
Mean Temperature 38 °F -  
Max Temperature 45 °F 62 °F 82 °F (1955)
Min Temperature 32 °F 38 °F 24 °F (1981)
Degree Days  
Heating Degree Days 26    
Moisture  
Dew Point 27 °F    
Average Humidity 64    
Maximum Humidity 83    
Minimum Humidity 48    
Precipitation  
Precipitation 0.00 in - - ()
Sea Level Pressure  
Sea Level Pressure 30.39 in    
Wind  
Wind Speed 12 mph (NW)    
Max Wind Speed 22 mph    
Max Gust Speed 28 mph    
Visibility 10 miles    
Events      
Averages and records for this station are not official NWS values.
T = Trace of Precipitation, MM = Missing Value Source: NWS Daily Summary

Daily Weather History Graph

Daily Weather History Graph

Search for Another Location

Airport:

Trip Planner

Search our weather history database for the weather conditions in past years. The results will help you decide how hot, cold, wet, or windy it might be!

Date:

Astronomy

Oct. 26, 2012 Rise Set
Actual Time 7:36 AM CDT 6:13 PM CDT
Civil Twilight 7:08 AM CDT 6:42 PM CDT
Nautical Twilight 6:35 AM CDT 7:14 PM CDT
Astronomical Twilight 6:03 AM CDT 7:46 PM CDT
Moon 4:31 PM CDT (10/26) 4:31 AM CDT (10/26)
Length of Visible Light 11h 33m
Length of Day
10h 37m
Waxing Gibbous, 91% of the Moon is Illuminated
Oct 26
Waxing Gibbous
Oct 29
Full
Nov 6
Last Quarter
Nov 13
New
Nov 20
First Quarter

Hourly Weather History & Observations

Time (CDT) Temp. Windchill Dew Point Humidity Pressure Visibility Wind Dir Wind Speed Gust Speed Precip Events Conditions
12:15 AM 38.5 °F 28.1 °F 26.8 °F 63% 30.28 in 10.0 mi NW 21.9 mph 27.6 mph N/A   Overcast
12:35 AM 38.5 °F 29.2 °F 27.3 °F 64% 30.28 in 10.0 mi NNW 17.3 mph 23.0 mph N/A   Overcast
12:55 AM 38.5 °F 30.3 °F 27.3 °F 64% 30.29 in 10.0 mi NNW 13.8 mph 20.7 mph N/A   Overcast
1:15 AM 37.9 °F 28.5 °F 26.2 °F 63% 30.30 in 10.0 mi NNW 17.3 mph 23.0 mph N/A   Mostly Cloudy
1:35 AM 36.9 °F 29.6 °F 26.6 °F 66% 30.30 in 10.0 mi NW 10.4 mph - N/A   Scattered Clouds
1:55 AM 35.6 °F 29.2 °F 26.6 °F 70% 30.30 in 10.0 mi NW 8.1 mph - N/A   Clear
2:35 AM 35.2 °F 28.8 °F 27.0 °F 72% 30.31 in 10.0 mi NNW 8.1 mph - N/A   Scattered Clouds
2:55 AM 33.8 °F 28.6 °F 27.0 °F 76% 30.31 in 10.0 mi NW 5.8 mph - N/A   Clear
3:15 AM 33.4 °F 29.1 °F 26.6 °F 76% 30.31 in 10.0 mi WNW 4.6 mph - N/A   Clear
3:35 AM 32.5 °F 28.1 °F 26.2 °F 78% 30.31 in 10.0 mi West 4.6 mph - N/A   Clear
3:55 AM 32.0 °F 27.5 °F 26.4 °F 80% 30.33 in 10.0 mi West 4.6 mph - N/A   Clear
4:15 AM 32.0 °F 25.6 °F 25.7 °F 78% 30.33 in 10.0 mi WNW 6.9 mph - N/A   Clear
4:35 AM 32.4 °F 26.0 °F 26.4 °F 79% 30.34 in 10.0 mi WNW 6.9 mph - N/A   Clear
4:55 AM 32.4 °F 26.0 °F 26.6 °F 79% 30.34 in 10.0 mi WNW 6.9 mph - N/A   Clear
5:15 AM 32.7 °F 26.4 °F 26.6 °F 78% 30.35 in 10.0 mi WNW 6.9 mph - N/A   Scattered Clouds
5:35 AM 33.6 °F 26.8 °F 26.8 °F 76% 30.36 in 10.0 mi WNW 8.1 mph - N/A   Scattered Clouds
5:55 AM 32.9 °F 25.3 °F 26.6 °F 78% 30.37 in 10.0 mi WNW 9.2 mph - N/A   Scattered Clouds
6:15 AM 32.9 °F 26.7 °F 26.6 °F 78% 30.38 in 10.0 mi WNW 6.9 mph - N/A   Scattered Clouds
6:35 AM 32.2 °F 25.8 °F 26.6 °F 80% 30.39 in 10.0 mi WNW 6.9 mph - N/A   Clear
6:55 AM 32.2 °F 25.8 °F 27.0 °F 81% 30.39 in 10.0 mi WNW 6.9 mph - N/A   Clear
7:15 AM 32.4 °F 26.0 °F 27.5 °F 82% 30.39 in 10.0 mi WNW 6.9 mph - N/A   Clear
7:35 AM 32.9 °F 25.3 °F 28.0 °F 82% 30.40 in 10.0 mi WNW 9.2 mph - N/A   Clear
7:55 AM 32.9 °F 25.9 °F 28.2 °F 83% 30.40 in 10.0 mi NW 8.1 mph - N/A   Clear
8:55 AM 36.1 °F 28.7 °F 29.5 °F 77% 30.43 in 10.0 mi NW 10.4 mph - N/A   Clear
9:15 AM 37.9 °F 30.9 °F 29.7 °F 72% 30.43 in 10.0 mi NNW 10.4 mph - N/A   Clear
9:35 AM 39.2 °F 31.6 °F 28.6 °F 66% 30.43 in 10.0 mi NNW 12.7 mph 17.3 mph N/A   Clear
9:55 AM 40.3 °F 32.2 °F 28.6 °F 63% 30.43 in 10.0 mi NNW 15.0 mph - N/A   Clear
10:15 AM 40.8 °F 32.9 °F 27.1 °F 58% 30.43 in 10.0 mi NNW 15.0 mph 19.6 mph N/A   Clear
10:35 AM 41.7 °F 32.9 °F 27.0 °F 56% 30.43 in 10.0 mi NNW 19.6 mph 23.0 mph N/A   Clear
10:55 AM 42.6 °F 34.9 °F 27.7 °F 56% 30.43 in 10.0 mi NNW 16.1 mph 20.7 mph N/A   Scattered Clouds
11:15 AM 42.6 °F 35.6 °F 28.0 °F 56% 30.43 in 10.0 mi NNW 13.8 mph 24.2 mph N/A   Mostly Cloudy
11:35 AM 42.8 °F 35.1 °F 27.7 °F 55% 30.43 in 10.0 mi NNW 16.1 mph 21.9 mph N/A   Mostly Cloudy
11:55 AM 44.1 °F 38.1 °F 26.6 °F 50% 30.43 in 10.0 mi North 11.5 mph 18.4 mph N/A   Scattered Clouds
12:15 PM 44.6 °F 37.4 °F 26.8 °F 50% 30.43 in 10.0 mi NW 16.1 mph - N/A   Scattered Clouds
12:35 PM 44.4 °F 38.2 °F 26.6 °F 50% 30.43 in 10.0 mi NNW 12.7 mph 18.4 mph N/A   Scattered Clouds
12:55 PM 45.0 °F 39.3 °F 26.8 °F 49% 30.43 in 10.0 mi NNW 11.5 mph 19.6 mph N/A   Mostly Cloudy
1:15 PM 45.5 °F 39.9 °F 27.1 °F 49% 30.43 in 10.0 mi NW 11.5 mph 19.6 mph N/A   Overcast
1:35 PM 44.6 °F 38.8 °F 26.4 °F 49% 30.43 in 10.0 mi NW 11.5 mph 26.5 mph N/A   Mostly Cloudy
1:55 PM 44.1 °F 38.6 °F 26.2 °F 50% 30.42 in 10.0 mi NW 10.4 mph 19.6 mph N/A   Scattered Clouds
2:15 PM 44.6 °F 39.2 °F 26.1 °F 48% 30.42 in 10.0 mi NW 10.4 mph - N/A   Scattered Clouds
2:35 PM 45.7 °F 40.6 °F 26.8 °F 48% 30.41 in 10.0 mi North 10.4 mph 16.1 mph N/A   Mostly Cloudy
2:55 PM 44.6 °F 40.7 °F 25.9 °F 48% 30.41 in 10.0 mi NW 6.9 mph - N/A   Scattered Clouds
3:15 PM 44.8 °F 39.0 °F 26.2 °F 48% 30.40 in 10.0 mi NW 11.5 mph - N/A   Scattered Clouds
3:35 PM 44.4 °F 38.6 °F 27.3 °F 51% 30.40 in 10.0 mi WNW 11.5 mph 19.6 mph N/A   Mostly Cloudy
3:55 PM 44.8 °F 39.0 °F 27.7 °F 51% 30.40 in 10.0 mi NW 11.5 mph 16.1 mph N/A   Mostly Cloudy
4:15 PM 45.7 °F 39.8 °F 27.5 °F 49% 30.39 in 10.0 mi NW 12.7 mph 19.6 mph N/A   Mostly Cloudy
4:35 PM 45.9 °F 41.2 °F 27.9 °F 49% 30.39 in 10.0 mi WNW 9.2 mph 17.3 mph N/A   Mostly Cloudy
4:55 PM 43.3 °F 37.7 °F 27.3 °F 53% 30.38 in 10.0 mi NW 10.4 mph - N/A   Scattered Clouds
5:15 PM 43.3 °F 38.1 °F 27.1 °F 53% 30.39 in 10.0 mi NNW 9.2 mph - N/A   Clear
5:35 PM 42.6 °F 37.2 °F 27.0 °F 54% 30.39 in 10.0 mi NW 9.2 mph - N/A   Clear
5:55 PM 41.4 °F 35.7 °F 27.7 °F 58% 30.39 in 10.0 mi NW 9.2 mph - N/A   Mostly Cloudy
6:15 PM 40.1 °F 33.6 °F 27.3 °F 60% 30.39 in 10.0 mi WNW 10.4 mph - N/A   Scattered Clouds
6:35 PM 39.7 °F 32.7 °F 27.0 °F 60% 30.40 in 10.0 mi WNW 11.5 mph 18.4 mph N/A   Mostly Cloudy
6:55 PM 38.8 °F 32.1 °F 27.1 °F 63% 30.41 in 10.0 mi NW 10.4 mph - N/A   Overcast
7:15 PM 38.3 °F 31.4 °F 27.5 °F 65% 30.41 in 10.0 mi NW 10.4 mph - N/A   Mostly Cloudy
7:35 PM 37.6 °F 31.0 °F 27.5 °F 67% 30.41 in 10.0 mi NW 9.2 mph - N/A   Mostly Cloudy
7:55 PM 37.0 °F 30.4 °F 26.8 °F 66% 30.41 in 10.0 mi NW 9.2 mph - N/A   Scattered Clouds
8:15 PM 37.8 °F 30.7 °F 26.1 °F 63% 30.42 in 10.0 mi NW 10.4 mph - N/A   Mostly Cloudy
8:35 PM 38.5 °F 32.1 °F 26.2 °F 61% 30.42 in 10.0 mi NW 9.2 mph - N/A   Overcast
8:55 PM 38.5 °F 32.1 °F 26.4 °F 62% 30.42 in 10.0 mi NW 9.2 mph - N/A   Overcast
9:15 PM 38.3 °F 33.2 °F 27.5 °F 65% 30.42 in 10.0 mi NNW 6.9 mph - N/A   Overcast
9:35 PM 38.7 °F 33.6 °F 27.3 °F 64% 30.42 in 10.0 mi NNW 6.9 mph - N/A   Overcast
10:15 PM 38.1 °F 30.7 °F 25.3 °F 60% 30.42 in 10.0 mi NNW 11.5 mph - N/A   Overcast
10:35 PM 37.4 °F 30.8 °F 25.0 °F 61% 30.42 in 10.0 mi NNW 9.2 mph - N/A   Mostly Cloudy
10:55 PM 35.1 °F 29.3 °F 25.3 °F 68% 30.42 in 10.0 mi NNW 6.9 mph - N/A   Scattered Clouds
11:15 PM 35.1 °F 31.0 °F 25.2 °F 67% 30.41 in 10.0 mi NNW 4.6 mph - N/A   Scattered Clouds
11:35 PM 33.8 °F 28.6 °F 25.3 °F 71% 30.41 in 10.0 mi NNW 5.8 mph - N/A   Scattered Clouds